[[{"header":{"parameterUnit":"m.s-1","parameterCategory":1,"la1":30.2991,"la2":30.254,"lo1":-89.0895,"lo2":-89.0444,"dy":0.0017,"dx":0.0017,"nx":28,"ny":28,"refTime":"2026-01-05T03:00:00:Z","depth":0,"parameterNumber":2,"parameterNumberName":"U-component_of_WINDS"},"data":[0,0,0,0,0,0,0,0,0,0,0,0,0,0,0,0,0,0,0,0,0,0,0,0,0,0,0,0,0,0,0,0,0,0,0,0,0,0,0,0,0,0,0,0,0,0,0,0,0,0,0,0,0,0,0,0,0,0,-0.7213,-0.7212,0,-0.72,-0.7199,-0.7199,-0.7169,-0.7169,-0.7168,-0.7167,-0.7157,-0.7157,-0.7157,0,0,0,0,0,0,0,0,0,0,0,0,0,-0.7214,-0.7214,-0.7213,-0.7212,-0.7212,-0.72,-0.7199,-0.7199,-0.7169,-0.7169,-0.7168,-0.7167,-0.7156,-0.7157,-0.7157,0,0,0,0,0,0,0,0,0,0,0,0,0,-0.7209,-0.7214,-0.7213,-0.7196,-0.7194,-0.72,-0.7199,-0.7199,-0.717,-0.7169,-0.7168,-0.7167,-0.7156,-0.7157,-0.7157,-0.7179,0,0,-0.7159,-0.7159,0,0,0,0,0,0,0,0,-0.7209,-0.7209,-0.7198,-0.7197,-0.7195,-0.7185,-0.7196,-0.7193,-0.717,-0.7179,-0.7167,-0.7166,-0.7167,-0.7166,-0.7166,-0.7178,-0.7178,-0.7159,-0.7159,-0.7159,-0.7159,0,0,0,0,0,0,0,-0.721,-0.7209,-0.7207,-0.7198,-0.7196,-0.719,-0.7188,-0.7195,-0.7178,-0.7178,-0.7176,-0.7175,-0.7166,-0.7166,-0.7166,-0.7178,-0.7159,-0.7159,-0.7159,-0.7159,-0.7209,-0.721,0,0,0,0,0,0,-0.7212,-0.721,-0.7208,-0.7207,-0.72,-0.7191,-0.7188,-0.7189,-0.7178,-0.7176,-0.7175,-0.7173,-0.7166,-0.7165,-0.7165,-0.7191,-0.7159,-0.716,-0.716,-0.7208,-0.7209,-0.721,0,0,0,0,0,0,-0.7212,-0.7212,-0.7208,-0.7208,-0.7207,-0.7191,-0.7193,-0.7189,-0.7189,-0.7176,-0.7173,-0.7178,-0.7165,-0.7165,-0.7176,-0.719,-0.716,-0.716,-0.7207,-0.7208,-0.721,-0.7242,0,0,0,0,0,0,-0.7212,-0.7212,-0.722,-0.7208,-0.7207,-0.7218,-0.7193,-0.719,-0.719,-0.7187,-0.7178,-0.7176,-0.7164,-0.7175,-0.7176,-0.719,-0.716,-0.7205,-0.7207,-0.7209,-0.724,-0.7245,-0.7249,0,0,0,0,0,-0.7212,-0.7229,-0.722,-0.722,-0.7216,-0.7219,-0.7219,-0.7204,-0.7191,-0.7199,-0.7191,-0.7176,-0.7188,-0.7177,-0.7178,-0.7192,-0.7204,-0.7207,-0.7209,-0.7238,-0.7244,-0.7249,0,0,0,0,0,0,-0.7244,-0.7228,-0.7217,-0.7231,-0.7227,-0.7214,-0.7223,-0.7211,-0.7211,-0.7208,-0.7191,-0.7189,-0.7203,-0.7198,-0.7186,-0.7213,-0.7194,-0.7197,-0.7216,-0.7221,-0.7226,-0.7227,-0.7161,0,0,0,0,0,-0.7252,-0.7255,-0.7241,-0.7255,-0.7253,-0.7239,-0.724,-0.7229,-0.7224,-0.7223,-0.7215,-0.7212,-0.7215,-0.7218,-0.722,-0.7239,-0.7237,-0.7249,-0.7254,-0.7257,-0.726,-0.7271,-0.7277,-0.7218,-0.7218,-0.7218,0,0,-0.7269,-0.7261,-0.7264,-0.7261,-0.7256,-0.7262,-0.7238,-0.7244,-0.7248,-0.7224,-0.7234,-0.7229,-0.7224,-0.724,-0.7246,-0.7236,-0.7276,-0.726,-0.7264,-0.7264,-0.7274,-0.728,-0.7285,-0.722,-0.7219,-0.7219,0,0,-0.7304,-0.7297,-0.7308,-0.7304,-0.7298,-0.7288,-0.7291,-0.7281,-0.7276,-0.7286,-0.7269,-0.7274,-0.7279,-0.7277,-0.7277,-0.7312,-0.7299,-0.7313,-0.7337,-0.7348,-0.7353,-0.7357,-0.7371,-0.7376,-0.7316,-0.7316,-0.7316,0,-0.7327,-0.7333,-0.7316,-0.7323,-0.7323,-0.7301,-0.7313,-0.731,-0.7305,-0.7306,-0.7295,-0.7302,-0.7297,-0.7313,-0.7322,-0.7322,-0.7325,-0.7314,-0.7353,-0.7357,-0.7361,-0.7374,-0.7379,-0.7318,-0.7317,-0.7317,-0.7317,0,-0.7362,-0.7366,-0.7376,-0.7371,-0.7372,-0.7382,-0.7368,-0.7371,-0.736,-0.7352,-0.7363,-0.7357,-0.7358,-0.7361,-0.7351,-0.7375,-0.737,-0.7356,-0.7337,-0.7369,-0.7381,-0.7385,-0.732,-0.732,-0.7319,-0.7319,0,0,-0.7415,-0.7402,-0.7406,-0.7404,-0.7395,-0.7399,-0.7408,-0.7409,-0.7413,-0.741,-0.7418,-0.7424,-0.7412,-0.7411,-0.7401,-0.741,-0.744,-0.7396,-0.7396,-0.7405,-0.7469,-0.748,-0.7486,-0.7431,-0.7432,-0.7433,-0.747,0,-0.7449,-0.7463,-0.7449,-0.7466,-0.7471,-0.7451,-0.746,-0.7456,-0.7449,-0.7453,-0.7446,-0.7451,-0.7433,-0.7433,-0.7442,-0.7435,-0.7453,-0.7432,-0.7441,-0.7441,-0.7443,-0.7492,-0.7503,-0.7538,-0.7474,-0.7475,-0.7476,0,-0.749,-0.7489,-0.7507,-0.7498,-0.75,-0.7507,-0.7508,-0.7511,-0.7507,-0.7502,-0.7502,-0.7489,-0.7499,-0.748,-0.7494,-0.748,-0.7483,-0.748,-0.7481,-0.7482,-0.7461,-0.7495,-0.7549,-0.7555,-0.7483,-0.7482,-0.7481,0,-0.7529,-0.7532,-0.7543,-0.7542,-0.7532,-0.7538,-0.7535,-0.753,-0.7531,-0.7532,-0.7533,-0.7535,-0.7536,-0.7538,-0.7527,-0.7513,-0.7543,-0.7523,-0.754,-0.7541,-0.7548,-0.7548,-0.7604,-0.7548,-0.7548,-0.7548,-0.7548,0,-0.7568,-0.758,-0.7561,-0.7568,-0.7582,-0.7566,-0.758,-0.7574,-0.757,-0.7577,-0.756,-0.7567,-0.7551,-0.7556,-0.7548,-0.7562,-0.7562,-0.7559,-0.7557,-0.7561,-0.7562,-0.7563,-0.7561,-0.7549,-0.7549,-0.7549,-0.7549,0,-0.7614,-0.7601,-0.7613,-0.7602,-0.76,-0.7611,-0.7603,-0.761,-0.7602,-0.7611,-0.7612,-0.76,-0.7606,-0.7594,-0.7599,-0.7593,-0.7613,-0.7607,-0.7614,-0.7613,-0.7632,-0.7631,-0.7691,-0.7699,-0.7638,-0.7638,-0.7639,0,-0.764,-0.7649,-0.764,-0.7643,-0.764,-0.7645,-0.7647,-0.7631,-0.7634,-0.7631,-0.7639,-0.7643,-0.7646,-0.7657,-0.7649,-0.7653,-0.7647,-0.7668,-0.7648,-0.7652,-0.7649,-0.7649,-0.7651,-0.7673,-0.7673,-0.7674,-0.7675,0,-0.7689,-0.7683,-0.7685,-0.7686,-0.7688,-0.7688,-0.7687,-0.7691,-0.7675,-0.7679,-0.7684,-0.7687,-0.7691,-0.7697,-0.7699,-0.7696,-0.7684,-0.7681,-0.7686,-0.7691,-0.7695,-0.7694,-0.7627,-0.768,-0.7679,-0.7679,-0.7679,-0.7678,-0.7727,-0.7735,-0.7729,-0.7733,-0.7731,-0.773,-0.7737,-0.7729,-0.7734,-0.7736,-0.7727,-0.7735,-0.7732,-0.7734,-0.7732,-0.7739,-0.773,-0.7736,-0.7738,-0.774,-0.7744,-0.7693,-0.774,-0.7739,-0.7739,-0.7739,-0.7739,0,-0.7776,-0.7772,-0.7775,-0.7774,-0.7778,-0.7764,-0.7763,-0.7767,-0.7774,-0.7772,-0.7775,-0.7782,-0.7787,-0.778,-0.7785,-0.7792,-0.7786,-0.7793,-0.7793,-0.7793,-0.7751,-0.7747,-0.7798,-0.7798,-0.7798,-0.7798,-0.7798,-0.7798,-0.7802,-0.7814,-0.7807,-0.7819,-0.7815,-0.7822,-0.7822,-0.7823,-0.7821,-0.783,-0.7834,-0.7829,-0.7825,-0.7829,-0.7834,-0.7832,-0.7835,-0.7845,-0.7841,-0.7802,-0.7796,-0.7791,-0.7787,-0.7845,-0.7845,-0.7882,-0.7883,-0.7883]},{"header":{"parameterUnit":"m.s-1","parameterCategory":1,"la1":30.2991,"la2":30.254,"lo1":-89.0895,"lo2":-89.0444,"dy":0.0017,"dx":0.0017,"nx":28,"ny":28,"refTime":"2026-01-05T03:00:00:Z","depth":0,"parameterNumber":3,"parameterNumberName":"V-component_of_WINDS"},"data":[0,0,0,0,0,0,0,0,0,0,0,0,0,0,0,0,0,0,0,0,0,0,0,0,0,0,0,0,0,0,0,0,0,0,0,0,0,0,0,0,0,0,0,0,0,0,0,0,0,0,0,0,0,0,0,0,0,0,0.9602,0.9603,0,0.9743,0.9744,0.9746,0.9829,0.9829,0.983,0.983,0.9971,0.9974,0.9978,0,0,0,0,0,0,0,0,0,0,0,0,0,0.9402,0.9405,0.9602,0.9604,0.9605,0.9743,0.9744,0.9746,0.9829,0.9829,0.983,0.983,0.997,0.9974,0.9978,0,0,0,0,0,0,0,0,0,0,0,0,0,0.951,0.9406,0.9602,0.9663,0.967,0.9742,0.9745,0.9747,0.9829,0.9829,0.983,0.983,0.9968,0.9973,0.9979,0.9999,0,0,0.9994,0.9996,0,0,0,0,0,0,0,0,0.9504,0.9517,0.9652,0.9659,0.9667,0.9769,0.9726,0.9831,0.9829,0.9768,0.983,0.9831,0.9903,0.9914,0.9939,1.0006,1.0012,0.9995,0.9998,1.0,1.0001,0,0,0,0,0,0,0,0.9496,0.9512,0.9658,0.9654,0.9663,0.9683,0.9699,0.9746,0.9831,0.9774,0.978,0.9796,0.9907,0.9934,0.9943,1.0014,0.9995,0.9999,1.0002,1.0004,1.0105,1.0104,0,0,0,0,0,0,0.9479,0.9505,0.9653,0.9662,0.9585,0.9686,0.9704,0.9736,0.9831,0.9846,0.9795,0.9799,0.9925,0.9937,0.9948,0.9978,1.0,1.0005,1.0008,1.0105,1.0105,1.0104,0,0,0,0,0,0,0.9475,0.9492,0.9647,0.9585,0.9607,0.9689,0.9724,0.9738,0.9765,0.9847,0.9862,0.9807,0.9925,0.9941,0.9986,0.9984,1.0007,1.0012,1.0106,1.0105,1.0104,1.0039,0,0,0,0,0,0,0.9469,0.949,0.9499,0.9585,0.961,0.9684,0.9724,0.974,0.9774,0.978,0.9862,0.9876,0.9927,0.9978,0.9991,0.9992,1.0016,1.0106,1.0105,1.0105,1.0041,1.0036,1.0031,0,0,0,0,0,0.9461,0.9474,0.9499,0.9516,0.9623,0.9684,0.9698,0.9757,0.9773,0.9783,0.9836,0.9873,0.9982,0.9982,0.9997,0.9999,1.0106,1.0106,1.0105,1.0044,1.0037,1.0031,0,0,0,0,0,0,0.9385,0.9487,0.9515,0.9557,0.9611,0.9698,0.9712,0.9748,0.9799,0.9802,0.9873,0.9891,0.9929,0.9969,0.9967,1.0024,1.0049,1.0051,0.9997,0.9991,0.9986,0.9975,1.002,0,0,0,0,0,0.9373,0.9415,0.9501,0.9529,0.9555,0.9628,0.9657,0.9698,0.9757,0.978,0.9836,0.9891,0.9938,0.9967,1.0014,1.0048,1.0066,1.0057,1.0052,1.0047,1.0048,1.0068,1.0064,1.0101,1.0101,1.0101,0,0,0.9349,0.941,0.9432,0.9516,0.9563,0.9603,0.9647,0.9688,0.9719,0.9786,0.9833,0.9875,0.9941,0.998,1.0,1.0015,1.0042,1.0046,1.0042,1.0045,1.0066,1.0063,1.006,1.0101,1.0101,1.0101,0,0,0.9326,0.9376,0.9405,0.9451,0.9522,0.9571,0.9578,0.9659,0.969,0.9738,0.9789,0.9826,0.9905,0.995,0.9982,0.9976,1.0012,0.9989,0.9962,0.9981,0.9978,0.9975,0.9972,0.997,0.999,0.9989,0.9989,0,0.9287,0.9351,0.9415,0.9454,0.9488,0.9552,0.9582,0.9623,0.9705,0.9727,0.9742,0.9843,0.9891,0.9942,0.994,0.9965,0.9974,0.998,0.9973,0.9972,0.997,0.9968,0.9967,0.9986,0.9986,0.9987,0.9987,0,0.9299,0.9342,0.9357,0.9435,0.9472,0.9505,0.9574,0.9603,0.9641,0.9688,0.9735,0.9796,0.9857,0.9872,0.9909,0.9927,0.9934,0.996,0.9986,0.9962,0.9961,0.9961,0.9981,0.9983,0.9984,0.9984,0,0,0.9231,0.9345,0.9349,0.9386,0.9468,0.9503,0.9538,0.9599,0.9622,0.9676,0.9708,0.9773,0.9798,0.9835,0.9878,0.9894,0.9884,0.9919,0.9921,0.9909,0.9906,0.9885,0.9883,0.9908,0.9908,0.9909,0.99,0,0.9219,0.9288,0.9347,0.9393,0.9434,0.9495,0.9526,0.9579,0.9624,0.9664,0.9713,0.9757,0.9787,0.981,0.9829,0.9881,0.9884,0.9882,0.9937,0.9938,0.9918,0.9883,0.9861,0.985,0.99,0.99,0.99,0,0.9215,0.9267,0.9318,0.9396,0.9415,0.9442,0.9502,0.954,0.9601,0.9633,0.9674,0.9719,0.9758,0.978,0.9835,0.9832,0.9858,0.9887,0.9888,0.9894,0.9917,0.9888,0.9849,0.9846,0.9901,0.9901,0.99,0,0.9159,0.9243,0.9284,0.9313,0.9406,0.9423,0.9462,0.9525,0.9557,0.9609,0.963,0.9685,0.9715,0.9756,0.9814,0.9825,0.9862,0.9889,0.9888,0.9886,0.9893,0.9891,0.9856,0.991,0.991,0.991,0.991,0,0.914,0.9168,0.926,0.9285,0.9319,0.9386,0.9416,0.9461,0.9515,0.9549,0.9605,0.9636,0.9711,0.975,0.9795,0.9833,0.9846,0.9871,0.9883,0.9866,0.9863,0.9883,0.9885,0.991,0.991,0.991,0.991,0,0.9083,0.9146,0.9195,0.9279,0.93,0.9321,0.9392,0.9418,0.9466,0.9508,0.9522,0.9596,0.9645,0.9707,0.9775,0.9806,0.9838,0.9856,0.9817,0.9824,0.9819,0.9818,0.9795,0.9795,0.9849,0.9849,0.9848,0,0.9066,0.9089,0.9176,0.9203,0.9241,0.9284,0.9317,0.9384,0.9416,0.9488,0.9505,0.9558,0.9604,0.9679,0.9738,0.979,0.981,0.9798,0.9818,0.98,0.9808,0.9806,0.9808,0.9793,0.9792,0.9791,0.979,0,0.9029,0.9059,0.9105,0.9163,0.9201,0.9249,0.93,0.9318,0.9395,0.9428,0.948,0.9515,0.9585,0.9637,0.9697,0.9736,0.9775,0.9784,0.9786,0.9769,0.9745,0.9757,0.9803,0.9784,0.9785,0.9785,0.9785,0.9786,0.8991,0.9014,0.9079,0.9128,0.9174,0.9219,0.9248,0.9299,0.9343,0.9406,0.9443,0.9492,0.9552,0.9637,0.9674,0.9713,0.9728,0.9732,0.9732,0.9732,0.9726,0.9739,0.9724,0.9725,0.9725,0.9725,0.9725,0,0.8956,0.9,0.9045,0.9115,0.9153,0.9189,0.9246,0.9276,0.9319,0.9372,0.9417,0.9475,0.9525,0.9588,0.9643,0.9661,0.9681,0.9673,0.9672,0.968,0.971,0.9702,0.9657,0.9657,0.9657,0.9657,0.9657,0.9657,0.8942,0.8983,0.9021,0.9084,0.9129,0.9178,0.9208,0.925,0.9293,0.9355,0.9398,0.9439,0.9496,0.9555,0.9602,0.962,0.9636,0.9623,0.9645,0.9672,0.9678,0.9684,0.9677,0.9626,0.9626,0.9612,0.9612,0.9612]}]]